TimePDT,TemperatureF,Dew PointF,Humidity,Sea Level PressureIn,VisibilityMPH,Wind Direction,Wind SpeedMPH,Gust SpeedMPH,PrecipitationIn,Events,Conditions,WindDirDegrees,DateUTC
12:12 AM,46.4,44.6,93,29.88,7.0,SE,5.8,-,0.01,Rain,Light Rain,130,2012-10-24 07:12:00
12:47 AM,46.4,44.6,93,29.88,10.0,ESE,8.1,-,0.02,Rain,Light Rain,120,2012-10-24 07:47:00
12:53 AM,46.0,44.1,93,29.88,10.0,ESE,8.1,-,0.02,Rain,Light Rain,110,2012-10-24 07:53:00
1:53 AM,46.0,43.0,89,29.88,10.0,ESE,9.2,-,0.01,Rain,Light Rain,110,2012-10-24 08:53:00
2:53 AM,46.0,44.1,93,29.89,10.0,ESE,10.4,-,0.00,,Overcast,120,2012-10-24 09:53:00
3:53 AM,46.0,43.0,89,29.88,10.0,ESE,10.4,-,N/A,,Overcast,120,2012-10-24 10:53:00
4:53 AM,46.0,44.1,93,29.89,10.0,ESE,5.8,-,0.00,,Overcast,120,2012-10-24 11:53:00
5:53 AM,46.0,43.0,89,29.90,10.0,ESE,8.1,-,N/A,,Overcast,110,2012-10-24 12:53:00
6:53 AM,46.0,43.0,89,29.91,10.0,SE,9.2,-,N/A,,Overcast,130,2012-10-24 13:53:00
7:53 AM,46.0,43.0,89,29.92,10.0,SE,6.9,-,N/A,,Overcast,130,2012-10-24 14:53:00
8:53 AM,46.9,42.1,83,29.95,10.0,South,4.6,-,0.00,,Overcast,170,2012-10-24 15:53:00
9:53 AM,48.0,44.1,86,29.96,10.0,South,9.2,-,N/A,,Overcast,170,2012-10-24 16:53:00
10:53 AM,48.9,43.0,80,29.97,10.0,South,6.9,-,N/A,,Overcast,180,2012-10-24 17:53:00
11:53 AM,50.0,42.1,74,29.99,10.0,SSW,9.2,-,N/A,,Overcast,200,2012-10-24 18:53:00
12:53 PM,51.1,41.0,68,29.99,10.0,South,12.7,-,N/A,,Mostly Cloudy,190,2012-10-24 19:53:00
1:35 PM,51.8,41.0,67,29.99,10.0,South,12.7,-,N/A,,Mostly Cloudy,190,2012-10-24 20:35:00
1:53 PM,51.8,41.0,67,30.00,10.0,SW,9.2,18.4,N/A,,Mostly Cloudy,220,2012-10-24 20:53:00
2:53 PM,54.0,41.0,62,30.00,10.0,South,12.7,-,N/A,,Overcast,190,2012-10-24 21:53:00
3:53 PM,52.0,39.9,63,30.02,10.0,South,10.4,-,N/A,,Mostly Cloudy,190,2012-10-24 22:53:00
4:53 PM,52.0,41.0,66,30.03,10.0,SW,6.9,-,N/A,,Mostly Cloudy,220,2012-10-24 23:53:00
5:53 PM,48.0,41.0,77,30.06,10.0,South,11.5,-,0.00,Rain,Light Rain,190,2012-10-25 00:53:00
6:53 PM,46.9,42.1,83,30.08,10.0,SE,4.6,-,0.00,Rain,Light Rain,140,2012-10-25 01:53:00
7:53 PM,46.0,43.0,89,30.11,10.0,ESE,8.1,-,0.00,,Overcast,110,2012-10-25 02:53:00
8:38 PM,46.4,44.6,93,30.12,10.0,SE,4.6,-,0.00,Rain,Light Rain,130,2012-10-25 03:38:00
8:53 PM,46.0,43.0,89,30.13,10.0,ESE,6.9,-,0.00,Rain,Light Rain,110,2012-10-25 03:53:00
9:53 PM,45.0,43.0,93,30.15,10.0,SE,6.9,-,0.01,Rain,Light Rain,130,2012-10-25 04:53:00
10:53 PM,46.0,44.1,93,30.18,10.0,SE,4.6,-,0.00,,Overcast,130,2012-10-25 05:53:00
11:53 PM,46.9,44.1,90,30.19,10.0,SSW,6.9,-,0.00,Rain,Light Rain,210,2012-10-25 06:53:00